Погода в Ольховом Логе

Россия / Воронежская область     50°34′02″N   39°15′49″E
темп.,
°C
ветер,
м/с
пор.,
м/с
влажн.,
%
обл.,
%
осадки,
мм/ч
давл.,
гПа
погр.,
м
25 июня, сб
сб2500:00+15всв3788100 0.0 1012223
03:00+14св3791100 0.0 1013166
06:00+16ссв249192 0.0 1013153
09:00+17св2491100 0.4 1014210
12:00+18св3792100 1.1 1015417
15:00+23всв5861100 1.1 10141562
18:00+23св367121 0.1 1014990
21:00+19св488167 0.4 1015124
26 июня, вс
вс2600:00+17св41189100 0.1 1016193
03:00+16св41190100 0.1 1017199
06:00+17св5118861 0.0 1018269
09:00+22св69693 0.0 1018581
12:00+25всв710555 0.0 10191776
15:00+25всв710532 0.0 10182221
18:00+24всв59642 0.0 1018841
21:00+18св38831 0.0 1019123
27 июня, пн
пн2700:00+17св48871 0.0 1020133
03:00+15св411880 0.0 1021202
06:00+16всв39820 0.0 1022244
09:00+21в46630 0.0 1022642
12:00+24всв46520 0.0 10211187
15:00+25всв45490 0.0 10201281
18:00+24всв35620 0.0 1019735
21:00+19вюв11740 0.0 102011
28 июня, вт
вт2800:00+18сз11730 0.0 101911
03:00+18сз22760 0.0 101814
06:00+19сз24830 0.0 1018131
09:00+25ссв467348 1.4 1017314
12:00+28св685516 1.1 10171572
15:00+28всв675113 1.1 10172300
18:00+24всв59727 0.2 1018279
21:00+20св49875 0.3 1019183
29 июня, ср
ср2900:00+16всв498596 0.0 1020201
03:00+14всв37785 0.0 1021136
06:00+14всв48795 0.0 1021223
09:00+19всв57592 0.0 1021743
12:00+21св56495 0.0 10221534
15:00+22св56480 0.0 10211908
18:00+20св56592 0.0 10211111
21:00+15св497321 0.0 1022164